timestamp,surface_pressure_avg,surface_temp_avg,battery_voltage,lat,long
2019-07-07 00:00:00+00:00,277.2814,12.25,13.05,47.84626,-54.09684
2019-07-07 00:10:00+00:00,285.0864,12.39,12.97,47.84626,-54.09684
2019-07-07 00:20:00+00:00,296.4047,12.41,12.97,47.84626,-54.09684
2019-07-07 00:30:00+00:00,305.3264,12.42,12.97,47.84626,-54.09684
2019-07-07 00:40:00+00:00,310.2346,12.48,12.97,47.84626,-54.09684
2019-07-07 00:50:00+00:00,317.8713,12.49,12.97,47.84626,-54.09684
2019-07-07 01:00:00+00:00,333.313,12.48,12.97,47.84626,-54.09684
2019-07-07 01:10:00+00:00,341.1479,12.44,12.89,47.84626,-54.09684
2019-07-07 01:20:00+00:00,346.0997,12.46,12.97,47.84626,-54.09684
2019-07-07 01:30:00+00:00,354.3463,12.48,12.97,47.84626,-54.09684
2019-07-07 01:40:00+00:00,359.8879,12.47,12.97,47.84626,-54.09684
2019-07-07 01:50:00+00:00,360.6863,12.48,12.97,47.84626,-54.09684
2019-07-07 02:00:00+00:00,363.5613,12.49,12.89,47.84626,-54.09684
2019-07-07 02:10:00+00:00,369.8695,12.49,12.81,47.84626,-54.09684
2019-07-07 02:20:00+00:00,369.8546,12.49,12.89,47.84626,-54.09684
2019-07-07 02:30:00+00:00,369.6046,12.5,12.89,47.84626,-54.09684
2019-07-07 02:40:00+00:00,373.4379,12.5,12.97,47.84626,-54.09684
2019-07-07 02:50:00+00:00,375.9045,12.5,12.97,47.84626,-54.09684
2019-07-07 03:00:00+00:00,372.3346,12.53,12.89,47.84626,-54.09684
2019-07-07 03:10:00+00:00,373.5863,12.58,12.81,47.84626,-54.09684
2019-07-07 03:20:00+00:00,378.588,12.58,12.89,47.84626,-54.09684
2019-07-07 03:30:00+00:00,376.7229,12.6,12.89,47.84626,-54.09684
2019-07-07 03:40:00+00:00,368.9847,12.6,12.89,47.84626,-54.09684
2019-07-07 03:50:00+00:00,371.528,12.6,12.97,47.84626,-54.09684
2019-07-07 04:00:00+00:00,373.3113,12.6,12.89,47.84626,-54.09684
2019-07-07 04:10:00+00:00,365.8529,12.6,12.81,47.84626,-54.09684
2019-07-07 04:20:00+00:00,360.5346,12.62,12.89,47.84626,-54.09684
2019-07-07 04:30:00+00:00,360.8096,12.64,12.89,47.84626,-54.09684
2019-07-07 04:40:00+00:00,352.0979,12.64,12.89,47.84626,-54.09684
2019-07-07 04:50:00+00:00,342.548,12.65,12.89,47.84626,-54.09684
2019-07-07 05:00:00+00:00,339.7197,12.65,12.81,47.84626,-54.09684
2019-07-07 05:10:00+00:00,332.448,12.65,12.81,47.84626,-54.09684
2019-07-07 05:20:00+00:00,317.2413,12.68,12.89,47.84626,-54.09684
2019-07-07 05:30:00+00:00,309.9996,12.69,12.89,47.84626,-54.09684
2019-07-07 05:40:00+00:00,307.5096,12.69,12.89,47.84626,-54.09684
2019-07-07 05:50:00+00:00,297.5714,12.69,12.89,47.84626,-54.09684
2019-07-07 06:00:00+00:00,278.5046,12.7,12.81,47.84626,-54.09684
2019-07-07 06:10:00+00:00,271.7397,12.7,12.73,47.84626,-54.09684
2019-07-07 06:20:00+00:00,267.8531,12.7,12.81,47.84626,-54.09684
2019-07-07 06:30:00+00:00,256.3431,12.7,12.81,47.84626,-54.09684
2019-07-07 06:40:00+00:00,241.7648,12.7,12.89,47.84626,-54.09684
2019-07-07 06:50:00+00:00,234.9714,12.7,12.89,47.84626,-54.09684
2019-07-07 07:00:00+00:00,226.5064,12.76,12.81,47.84626,-54.09684
2019-07-07 07:10:00+00:00,216.8764,12.8,12.73,47.84626,-54.09684
2019-07-07 07:20:00+00:00,210.9681,12.85,12.81,47.84626,-54.09684
2019-07-07 07:30:00+00:00,207.8814,12.9,12.81,47.84626,-54.09684
2019-07-07 07:40:00+00:00,202.2664,12.99,12.81,47.84626,-54.09684
2019-07-07 07:50:00+00:00,197.2848,13.0,12.81,47.84626,-54.09684
2019-07-07 08:00:00+00:00,194.3265,13.08,12.81,47.84626,-54.09684
2019-07-07 08:10:00+00:00,191.5298,13.1,12.73,47.84626,-54.09684
2019-07-07 08:20:00+00:00,186.5998,13.1,12.81,47.84626,-54.09684
2019-07-07 08:30:00+00:00,185.1331,13.1,12.81,47.84626,-54.09684
2019-07-07 08:40:00+00:00,187.7315,13.1,12.81,47.84626,-54.09684
2019-07-07 08:50:00+00:00,187.5614,13.1,12.81,47.84626,-54.09684
2019-07-07 09:00:00+00:00,183.4815,13.1,12.73,47.84626,-54.09684
2019-07-07 09:10:00+00:00,189.7831,13.1,12.73,47.84626,-54.09684
2019-07-07 09:20:00+00:00,197.3564,13.1,12.73,47.84626,-54.09684
2019-07-07 09:30:00+00:00,194.2531,13.1,12.81,47.84626,-54.09684
2019-07-07 09:40:00+00:00,197.7998,13.09,12.81,47.84626,-54.09684
2019-07-07 09:50:00+00:00,207.3448,13.08,12.81,47.84626,-54.09684
2019-07-07 10:00:00+00:00,205.3548,13.07,12.73,47.84626,-54.09684
2019-07-07 10:10:00+00:00,200.8214,13.07,12.65,47.84626,-54.09684
2019-07-07 10:20:00+00:00,209.8098,13.06,12.81,47.84626,-54.09684
2019-07-07 10:30:00+00:00,214.8181,13.02,12.81,47.84626,-54.09684
2019-07-07 10:40:00+00:00,210.3615,13.01,12.89,47.84626,-54.09684
2019-07-07 10:50:00+00:00,212.6564,13.0,12.89,47.84626,-54.09684
2019-07-07 11:00:00+00:00,221.7131,13.0,12.81,47.84626,-54.09684
2019-07-07 11:10:00+00:00,224.7997,13.0,12.81,47.84626,-54.09684
2019-07-07 11:20:00+00:00,229.0948,13.0,12.97,47.84626,-54.09684
2019-07-07 11:30:00+00:00,238.0948,13.0,13.21,47.84626,-54.09684
2019-07-07 11:40:00+00:00,246.8597,13.0,13.29,47.84626,-54.09684
2019-07-07 11:50:00+00:00,249.0531,13.0,13.29,47.84626,-54.09684
2019-07-07 12:00:00+00:00,250.6115,13.0,13.29,47.84626,-54.09684
2019-07-07 12:10:00+00:00,258.9431,13.0,13.29,47.84626,-54.09684
2019-07-07 12:20:00+00:00,266.4297,13.0,13.53,47.84626,-54.09684
2019-07-07 12:30:00+00:00,265.0931,13.0,13.6,47.84626,-54.09684
2019-07-07 12:40:00+00:00,271.298,13.0,13.68,47.84626,-54.09684
2019-07-07 12:50:00+00:00,285.123,13.0,13.68,47.84626,-54.09684
2019-07-07 13:00:00+00:00,294.9614,13.0,13.68,47.84626,-54.09684
2019-07-07 13:10:00+00:00,297.3897,13.0,13.68,47.84626,-54.09684
2019-07-07 13:20:00+00:00,308.8331,13.0,14.16,47.84626,-54.09684
2019-07-07 13:30:00+00:00,322.718,13.0,14.72,47.84626,-54.09684
2019-07-07 13:40:00+00:00,327.3314,13.0,14.48,47.84626,-54.09684
2019-07-07 13:50:00+00:00,328.0179,13.0,14.72,47.84626,-54.09684
2019-07-07 14:00:00+00:00,333.7579,13.0,14.64,47.84626,-54.09684
2019-07-07 14:10:00+00:00,342.9697,13.0,14.48,47.84626,-54.09684
2019-07-07 14:20:00+00:00,345.5347,13.0,14.56,47.84626,-54.09684
2019-07-07 14:30:00+00:00,344.5563,13.01,14.56,47.84626,-54.09684
2019-07-07 14:40:00+00:00,347.2446,13.03,14.64,47.84626,-54.09684
2019-07-07 14:50:00+00:00,351.3663,13.06,14.4,47.84626,-54.09684
2019-07-07 15:00:00+00:00,351.2046,13.03,14.24,47.84626,-54.09684
2019-07-07 15:10:00+00:00,350.8946,13.03,14.16,47.84626,-54.09684
2019-07-07 15:20:00+00:00,353.2897,13.0,14.24,47.84626,-54.09684
2019-07-07 15:30:00+00:00,353.978,13.0,14.56,47.84626,-54.09684
2019-07-07 15:40:00+00:00,350.8162,13.0,14.56,47.84626,-54.09684
2019-07-07 15:50:00+00:00,352.8962,13.0,14.64,47.84626,-54.09684
2019-07-07 16:00:00+00:00,351.6063,13.0,14.48,47.84626,-54.09684
2019-07-07 16:10:00+00:00,347.5497,13.04,14.4,47.84626,-54.09684
2019-07-07 16:20:00+00:00,346.9813,13.09,14.56,47.84626,-54.09684
2019-07-07 16:30:00+00:00,345.8896,13.1,14.48,47.84626,-54.09684
2019-07-07 16:40:00+00:00,340.9612,13.1,14.48,47.84626,-54.09684
2019-07-07 16:50:00+00:00,335.6063,13.17,14.48,47.84626,-54.09684
2019-07-07 17:00:00+00:00,333.9547,13.19,14.32,47.84626,-54.09684
2019-07-07 17:10:00+00:00,328.8713,13.2,14.32,47.84626,-54.09684
2019-07-07 17:20:00+00:00,321.6631,13.28,14.4,47.84626,-54.09684
2019-07-07 17:30:00+00:00,314.0146,13.3,14.32,47.84626,-54.09684
2019-07-07 17:40:00+00:00,307.2363,13.39,14.32,47.84626,-54.09684
2019-07-07 17:50:00+00:00,299.0547,13.4,14.24,47.84626,-54.09684
2019-07-07 18:00:00+00:00,289.5997,13.47,14.16,47.84626,-54.09684
2019-07-07 18:10:00+00:00,281.3947,13.5,14.08,47.84626,-54.09684
2019-07-07 18:20:00+00:00,273.9214,13.54,14.16,47.84626,-54.09684
2019-07-07 18:30:00+00:00,266.3647,13.6,14.08,47.84626,-54.09684
2019-07-07 18:40:00+00:00,254.7664,13.6,14.08,47.84626,-54.09684
2019-07-07 18:50:00+00:00,242.6381,13.6,14.08,47.84626,-54.09684
2019-07-07 19:00:00+00:00,234.6697,13.6,14.0,47.84626,-54.09684
2019-07-07 19:10:00+00:00,230.9331,13.6,13.92,47.84626,-54.09684
2019-07-07 19:20:00+00:00,224.6848,13.6,14.0,47.84626,-54.09684
2019-07-07 19:30:00+00:00,217.5731,13.61,14.08,47.84626,-54.09684
2019-07-07 19:40:00+00:00,212.7381,13.69,14.08,47.84626,-54.09684
2019-07-07 19:50:00+00:00,211.8248,13.69,14.08,47.84626,-54.09684
2019-07-07 20:00:00+00:00,206.3297,13.69,14.0,47.84626,-54.09684
2019-07-07 20:10:00+00:00,200.7814,13.7,13.92,47.84626,-54.09684
2019-07-07 20:20:00+00:00,200.2815,13.7,14.0,47.84626,-54.09684
2019-07-07 20:30:00+00:00,199.5981,13.7,14.0,47.84626,-54.09684
2019-07-07 20:40:00+00:00,194.2948,13.74,14.0,47.84626,-54.09684
2019-07-07 20:50:00+00:00,191.9948,13.8,14.0,47.84626,-54.09684
2019-07-07 21:00:00+00:00,194.1964,13.83,13.92,47.84626,-54.09684
2019-07-07 21:10:00+00:00,194.7131,13.93,13.76,47.84626,-54.09684
2019-07-07 21:20:00+00:00,196.7631,14.01,13.84,47.84626,-54.09684
2019-07-07 21:30:00+00:00,204.3365,14.0,13.84,47.84626,-54.09684
2019-07-07 21:40:00+00:00,208.8298,13.9,13.84,47.84626,-54.09684
2019-07-07 21:50:00+00:00,209.8831,13.87,13.84,47.84626,-54.09684
2019-07-07 22:00:00+00:00,214.1881,13.81,13.76,47.84626,-54.09684
2019-07-07 22:10:00+00:00,218.0764,13.8,13.68,47.84626,-54.09684
2019-07-07 22:20:00+00:00,219.4514,13.8,13.68,47.84626,-54.09684
2019-07-07 22:30:00+00:00,220.4565,13.8,13.68,47.84626,-54.09684
2019-07-07 22:40:00+00:00,225.7131,13.8,13.68,47.84626,-54.09684
2019-07-07 22:50:00+00:00,230.0515,13.8,13.68,47.84626,-54.09684
2019-07-07 23:00:00+00:00,231.1631,13.8,13.53,47.84626,-54.09684
2019-07-07 23:10:00+00:00,232.9464,13.89,13.37,47.84626,-54.09684
2019-07-07 23:20:00+00:00,238.5814,13.9,13.37,47.84626,-54.09684
2019-07-07 23:30:00+00:00,243.3714,13.9,13.29,47.84626,-54.09684
2019-07-07 23:40:00+00:00,245.5298,13.9,13.29,47.84626,-54.09684
2019-07-07 23:50:00+00:00,249.588,13.98,13.29,47.84626,-54.09684
